[[{"header":{"parameterUnit":"m.s-1","parameterCategory":1,"la1":30.2992,"la2":30.254,"lo1":-89.0895,"lo2":-89.0443,"dy":0.0025,"dx":0.0025,"nx":19,"ny":19,"refTime":"2026-04-22T21:00:00:Z","depth":0,"parameterNumber":2,"parameterNumberName":"U-component_of_WINDS"},"data":[0,0,0,-3.4151,-3.4151,-3.4157,-3.4157,-3.4183,-3.4183,0,0,0,0,0,0,0,0,0,0,0,-3.4159,-3.4159,-3.4151,-3.4151,-3.4157,-3.4157,-3.4183,-3.4183,0,0,0,0,0,0,0,0,0,0,0,-3.4159,-3.4159,-3.416,-3.4151,-3.4157,-3.4157,-3.4182,-3.4172,0,0,0,0,0,0,0,0,0,0,-3.4163,-3.418,-3.4159,-3.416,-3.4151,-3.4157,-3.4157,-3.4171,-3.4172,-3.4187,0,-3.4203,0,-3.4193,-3.4186,-3.4186,0,0,0,-3.4144,-3.4179,-3.4171,-3.416,-3.4151,-3.4157,-3.4152,-3.4172,-3.4173,-3.4189,-3.4203,-3.4203,-3.4194,-3.4186,-3.4186,-3.4295,-3.4296,0,0,-3.4143,-3.4165,-3.417,-3.4173,-3.4172,-3.4152,-3.4153,-3.4172,-3.4189,-3.4203,-3.4204,-3.4194,-3.4186,-3.4187,-3.4294,-3.4295,0,0,0,-3.4147,-3.4166,-3.4157,-3.4172,-3.4172,-3.4152,-3.4153,-3.4188,-3.4183,-3.4204,-3.4194,-3.4187,-3.4187,-3.4293,-3.4295,-3.4357,0,0,0,-3.4147,-3.4168,-3.4157,-3.4171,-3.4172,-3.418,-3.4168,-3.4182,-3.4183,-3.4194,-3.4187,-3.4188,-3.4292,-3.4294,-3.4353,-3.4383,0,0,0,-3.4155,-3.4169,-3.4173,-3.4172,-3.4175,-3.4179,-3.4175,-3.4181,-3.4178,-3.4186,-3.4188,-3.4292,-3.4294,-3.435,-3.4377,-3.4417,0,0,0,-3.417,-3.4229,-3.4174,-3.4236,-3.4176,-3.4218,-3.4175,-3.4205,-3.422,-3.4187,-3.4292,-3.4295,-3.4349,-3.4374,-3.4414,-3.4454,-3.4473,0,0,-3.4256,-3.424,-3.4275,-3.4226,-3.4283,-3.4215,-3.4282,-3.4274,-3.4256,-3.4283,-3.4286,-3.4355,-3.4377,-3.4416,-3.4574,-3.459,0,0,0,-3.4309,-3.4334,-3.4345,-3.4359,-3.4355,-3.4354,-3.4334,-3.4332,-3.4354,-3.4274,-3.438,-3.4392,-3.4415,-3.4433,-3.4446,-3.4463,-3.4304,-3.4304,-3.4304,-3.4462,-3.4434,-3.449,-3.4463,-3.4478,-3.4458,-3.4467,-3.446,-3.4429,-3.4454,-3.4462,-3.4561,-3.4583,-3.4593,-3.4611,-3.4482,-3.4482,-3.4482,-3.4482,-3.4584,-3.4615,-3.4572,-3.461,-3.4581,-3.4614,-3.4597,-3.4573,-3.4599,-3.4553,-3.4571,-3.4521,-3.461,-3.4625,-3.4487,-3.4486,-3.4486,-3.4485,-3.4485,-3.468,-3.469,-3.4686,-3.4704,-3.4722,-3.4694,-3.4721,-3.4694,-3.4669,-3.4687,-3.4692,-3.4691,-3.4685,-3.4692,-3.4692,-3.4692,-3.4693,-3.4693,-3.4693,-3.478,-3.4774,-3.4799,-3.48,-3.4806,-3.4811,-3.4792,-3.4797,-3.4796,-3.4775,-3.4775,-3.474,-3.4624,-3.4595,-3.4698,-3.4697,-3.4697,-3.4696,-3.4696,-3.4912,-3.4878,-3.4918,-3.4924,-3.4923,-3.4943,-3.4908,-3.4922,-3.4923,-3.4937,-3.4899,-3.4818,-3.48,-3.4789,-3.4765,-3.4905,-3.4905,-3.4905,-3.4905,-3.4992,-3.4981,-3.5015,-3.5026,-3.5035,-3.5008,-3.5054,-3.5041,-3.5021,-3.502,-3.4996,-3.4962,-3.4953,-3.4939,-3.4926,-3.4902,-3.5075,-3.5075,-3.5075,-3.5072,-3.506,-3.5103,-3.5083,-3.5081,-3.508,-3.5123,-3.5138,-3.511,-3.5082,-3.5019,-3.5011,-3.4956,-3.4939,-3.4908,-3.4888,-3.4844,0,0]},{"header":{"parameterUnit":"m.s-1","parameterCategory":1,"la1":30.2992,"la2":30.254,"lo1":-89.0895,"lo2":-89.0443,"dy":0.0025,"dx":0.0025,"nx":19,"ny":19,"refTime":"2026-04-22T21:00:00:Z","depth":0,"parameterNumber":3,"parameterNumberName":"V-component_of_WINDS"},"data":[0,0,0,4.2047,4.2048,4.2088,4.2089,4.214,4.214,0,0,0,0,0,0,0,0,0,0,0,4.2036,4.2036,4.2047,4.2048,4.2088,4.2089,4.214,4.214,0,0,0,0,0,0,0,0,0,0,0,4.2036,4.2036,4.2037,4.2048,4.2088,4.2089,4.214,4.2109,0,0,0,0,0,0,0,0,0,0,4.207,4.206,4.2036,4.2037,4.2048,4.2088,4.2089,4.2108,4.2111,4.2122,0,4.2133,0,4.2138,4.2144,4.2144,0,0,0,4.2047,4.2058,4.2068,4.2037,4.2049,4.2088,4.207,4.211,4.2113,4.2126,4.2133,4.2135,4.2138,4.2144,4.2145,4.2214,4.2215,0,0,4.2045,4.2043,4.2065,4.2071,4.2066,4.2069,4.2071,4.2112,4.2119,4.2134,4.2136,4.2139,4.2145,4.2145,4.2214,4.2214,0,0,0,4.2039,4.2042,4.2051,4.2069,4.2076,4.207,4.2073,4.2117,4.212,4.2137,4.214,4.2145,4.2146,4.2214,4.2214,4.2232,0,0,0,4.2038,4.2038,4.205,4.2049,4.2075,4.2097,4.2077,4.2117,4.2122,4.214,4.2145,4.2146,4.2213,4.2214,4.2231,4.224,0,0,0,4.2033,4.2038,4.2044,4.2049,4.2067,4.2096,4.2102,4.2118,4.2124,4.2144,4.2146,4.2213,4.2214,4.2229,4.2238,4.2259,0,0,0,4.2027,4.2057,4.2044,4.208,4.2066,4.2108,4.2102,4.2132,4.2152,4.2145,4.2213,4.2214,4.2229,4.2237,4.2258,4.2277,4.2284,0,0,4.2064,4.2062,4.2083,4.2072,4.2116,4.2102,4.2147,4.2166,4.2168,4.2199,4.22,4.2231,4.2238,4.2259,4.2327,4.2334,0,0,0,4.2094,4.211,4.2122,4.2141,4.2157,4.2172,4.2184,4.2192,4.2218,4.2184,4.2244,4.2248,4.2261,4.227,4.2275,4.2286,4.2218,4.2218,4.2218,4.2144,4.2148,4.2184,4.2193,4.2212,4.2226,4.2241,4.2253,4.2249,4.2264,4.2272,4.2314,4.2324,4.2328,4.234,4.2282,4.2283,4.2283,4.2283,4.22,4.2223,4.222,4.2254,4.2257,4.2285,4.23,4.2297,4.2323,4.2307,4.2318,4.23,4.2335,4.2345,4.2284,4.2284,4.2284,4.2283,4.2283,4.2233,4.2245,4.2255,4.2285,4.2308,4.2316,4.2342,4.2344,4.2345,4.2356,4.2366,4.2366,4.2366,4.2361,4.2361,4.2361,4.2361,4.2362,4.2362,4.2264,4.2274,4.2297,4.2319,4.2333,4.2352,4.2367,4.238,4.2395,4.2395,4.2395,4.239,4.2338,4.2325,4.2364,4.2364,4.2363,4.2363,4.2363,4.2319,4.2308,4.2343,4.2357,4.2384,4.2407,4.241,4.2438,4.2449,4.2462,4.2456,4.2417,4.2414,4.2409,4.2399,4.2455,4.2455,4.2455,4.2455,4.2348,4.2347,4.2385,4.2408,4.243,4.2437,4.2477,4.249,4.25,4.2508,4.25,4.2486,4.2481,4.2481,4.2475,4.2465,4.2537,4.2537,4.2537,4.2383,4.2385,4.2418,4.2431,4.2453,4.2471,4.2509,4.2535,4.2544,4.254,4.2514,4.251,4.2487,4.248,4.2475,4.2466,4.2448,0,0]}]]